Wind_Speed
42 42 42 42 42 42 42 42 42 42 42 43 44 44 44 44 45 45 45 46 47 47 47 47 47 48 48 49 50 51 53 54 54 53 52 53 52 53
42 42 43 43 43 43 43 43 43 43 43 44 45 45 46 45 45 46 46 46 47 47 47 47 47 48 48 49 51 52 53 55 55 55 55 55 55 55
43 44 44 44 44 44 44 45 45 45 45 45 46 47 47 47 47 48 48 47 48 48 48 48 48 48 49 49 50 51 52 53 54 54 56 55 56 56
44 45 45 46 46 45 46 46 46 46 47 47 47 48 48 48 49 49 50 49 49 49 49 49 48 48 49 49 50 50 51 52 53 54 56 56 56 56
46 46 46 46 46 46 46 46 47 47 47 48 48 49 48 49 50 51 52 52 52 51 50 50 49 50 50 50 51 51 52 53 53 54 55 56 56 56
47 47 47 47 47 47 47 47 48 48 49 49 49 49 49 50 51 51 51 52 52 52 51 50 50 51 51 51 51 52 52 53 54 55 55 56 57 57
47 47 48 48 48 48 49 49 49 49 50 50 50 50 50 51 51 50 50 51 51 51 50 51 51 50 50 50 50 51 53 54 55 55 56 57 58 58
47 47 48 48 48 49 49 49 50 50 50 50 50 50 51 51 51 51 50 50 49 49 50 50 51 51 51 51 52 53 54 54 54 55 56 57 58 59
48 48 48 48 48 49 49 50 50 49 49 49 50 50 50 51 51 51 51 50 49 50 50 49 50 51 51 52 53 53 53 54 55 55 56 57 58 59
48 48 48 48 49 49 49 49 49 49 49 49 50 50 50 50 50 50 50 50 50 50 50 49 50 51 51 53 54 55 55 55 55 55 55 56 57 58
47 48 48 48 48 49 49 49 49 49 49 49 49 49 49 49 50 50 49 50 50 50 50 50 50 50 50 52 53 54 54 54 54 54 54 55 56 57
47 48 48 48 48 49 49 48 48 48 48 48 48 48 48 48 48 49 49 49 49 49 50 50 50 49 49 49 51 52 53 52 52 53 53 54 54 55
46 47 47 47 48 48 48 47 47 47 47 47 47 47 47 47 48 48 48 47 47 48 48 49 48 48 48 47 47 48 49 50 50 50 51 51 52 53
46 46 47 47 47 47 46 45 45 45 45 45 45 45 45 46 46 46 46 46 47 47 47 47 46 46 46 45 44 45 46 47 48 48 48 49 49 49
45 45 45 45 45 45 44 44 44 43 43 43 43 43 44 44 44 44 45 45 45 45 45 44 44 44 43 43 42 43 43 44 45 45 45 45 46 45
43 43 43 42 42 42 42 42 41 41 41 41 41 42 43 43 44 44 43 43 43 43 43 43 42 42 41 41 41 41 41 42 42 42 42 43 43 43
41 41 41 40 40 40 40 39 39 39 40 40 40 41 41 42 42 42 42 42 42 41 41 41 41 40 40 40 39 39 40 40 40 41 40 40 40 41
39 39 39 38 38 38 37 38 38 38 38 39 39 40 40 41 41 41 42 41 40 39 38 38 38 38 37 38 38 38 38 38 38 38 38 37 37 37
38 38 38 38 37 37 36 36 36 37 38 39 39 40 40 40 41 41 40 39 38 37 37 37 36 36 35 35 35 37 37 36 35 35 35 34 33 33
37 37 37 37 36 36 36 36 36 37 38 38 39 39 39 39 39 39 38 36 35 35 35 35 35 35 34 34 33 33 35 34 33 33 32 31 30 30
36 36 36 36 35 35 35 36 37 37 38 38 38 38 38 38 37 36 35 34 34 33 33 33 33 34 34 33 32 32 33 33 32 31 30 28 27 27
35 35 35 35 35 35 35 36 36 37 37 37 37 37 36 36 35 35 34 33 32 32 32 32 32 33 32 32 31 30 30 30 30 29 28 26 25 24
34 34 34 34 35 35 35 35 36 36 36 35 35 35 35 34 34 33 33 32 31 31 31 31 31 32 32 31 30 29 28 27 26 25 25 24 23 23
Wind_Direction
282 283 284 286 287 287 287 286 286 285 284 284 284 285 284 285 286 286 286 285 285 282 280 278 276 274 273 270 269 267 266 265 264 264 264 264 263 263
282 283 285 285 286 287 286 286 285 285 284 284 285 284 284 285 286 285 285 285 286 284 282 281 278 276 274 272 271 270 268 266 265 264 264 263 263 263
282 283 284 286 286 286 285 285 285 285 285 285 285 285 285 285 285 285 284 285 285 284 283 281 278 276 274 273 273 271 269 267 265 266 265 264 263 262
283 284 284 285 285 285 285 285 285 285 286 286 286 286 286 286 285 285 285 285 286 285 283 281 278 277 275 273 272 272 270 267 266 265 265 265 264 262
282 284 285 285 285 286 286 285 285 286 286 286 286 286 286 287 286 285 285 285 286 285 283 280 278 277 276 274 272 271 270 268 267 266 265 265 264 262
282 283 284 285 286 286 287 286 286 286 286 287 287 287 286 288 288 287 286 286 285 284 282 280 279 277 277 276 275 272 271 270 269 268 266 266 265 264
282 283 284 285 286 286 287 287 287 286 287 287 287 288 288 288 289 289 288 286 285 283 282 281 279 277 276 276 276 274 273 272 271 269 268 266 266 265
283 284 285 286 286 286 286 287 287 287 287 287 288 289 289 288 289 288 288 286 285 283 282 281 279 278 277 276 276 275 275 274 273 271 269 267 266 265
282 284 285 286 286 286 287 287 287 287 287 288 288 289 289 288 288 287 287 286 285 284 283 281 281 280 278 277 276 276 276 275 274 272 271 269 267 265
283 284 285 285 286 287 287 287 287 288 288 289 289 289 289 289 289 288 287 286 285 285 284 284 283 282 279 278 278 278 278 277 276 274 272 270 267 265
283 284 285 285 286 287 287 287 287 288 289 289 289 289 289 289 290 289 287 286 286 286 286 286 285 284 282 281 279 279 278 278 277 276 274 272 270 267
283 283 284 285 286 287 289 289 288 289 290 290 290 291 291 291 291 290 289 288 287 287 286 287 287 285 284 282 281 280 279 278 277 276 275 273 272 269
283 284 284 286 287 288 289 289 289 290 290 290 291 291 292 292 292 292 291 290 290 290 289 288 288 287 286 284 282 280 279 279 278 278 276 275 274 271
284 284 285 286 287 288 289 289 290 290 291 292 292 293 293 293 294 293 293 292 292 292 291 291 291 289 288 286 283 281 281 281 280 279 278 277 275 273
285 285 286 287 288 289 289 289 290 291 292 293 293 294 294 295 295 295 294 294 294 294 293 293 293 292 291 289 286 284 283 282 282 280 279 278 276 273
286 286 287 287 289 289 290 290 290 291 293 293 294 295 296 297 297 297 297 296 296 295 294 295 295 295 294 292 289 288 287 285 284 283 281 280 278 274
286 287 287 288 289 289 290 290 291 292 293 295 296 297 298 299 299 299 298 298 297 297 296 296 296 296 296 294 292 290 290 289 288 286 283 281 278 275
286 286 288 289 290 290 291 292 293 294 295 296 298 299 299 300 300 300 300 299 298 297 296 296 297 296 296 296 294 292 292 292 291 289 286 283 279 275
286 287 288 290 290 290 291 293 294 296 297 297 298 299 300 300 300 301 300 299 298 298 297 297 297 297 297 296 295 294 294 293 292 290 289 285 280 275
285 287 289 290 290 291 292 293 295 296 298 298 299 300 300 301 301 302 301 300 299 299 298 299 299 299 299 299 298 297 297 296 294 292 290 287 282 277
285 287 288 290 290 292 293 294 295 297 298 299 300 300 300 301 302 302 301 300 300 300 300 301 301 302 301 301 301 300 300 299 297 294 292 288 283 277
285 287 288 290 291 292 294 295 296 297 298 299 300 300 301 301 302 302 301 301 300 301 302 302 303 303 304 303 303 303 301 301 301 298 295 291 286 280
286 287 289 291 291 292 294 295 296 297 298 299 300 300 301 301 301 301 301 301 301 302 302 303 304 304 304 304 305 304 303 303 303 300 297 293 288 285
Height
5708 5706 5704 5701 5698 5696 5693 5690 5688 5685 5682 5679 5676 5674 5671 5668 5665 5662 5659 5655 5652 5649 5647 5645 5644 5643 5641 5640 5640 5639 5639 5640 5640 5641 5642 5642 5644 5645
5697 5695 5693 5690 5687 5684 5681 5679 5676 5674 5671 5668 5665 5662 5659 5656 5653 5649 5646 5643 5639 5636 5634 5632 5630 5629 5627 5626 5625 5625 5625 5625 5625 5626 5627 5627 5629 5630
5686 5684 5681 5679 5676 5673 5670 5667 5664 5662 5659 5656 5653 5650 5647 5643 5640 5637 5633 5630 5627 5623 5621 5618 5616 5615 5613 5612 5610 5610 5609 5609 5610 5610 5611 5612 5613 5615
5674 5672 5669 5666 5664 5661 5658 5655 5652 5649 5646 5644 5640 5637 5633 5630 5627 5623 5620 5616 5613 5610 5607 5604 5602 5600 5599 5597 5596 5595 5594 5594 5594 5595 5595 5596 5597 5598
5662 5659 5657 5654 5651 5648 5645 5642 5639 5636 5633 5630 5627 5623 5620 5616 5613 5609 5606 5602 5599 5595 5592 5590 5587 5585 5584 5582 5581 5580 5579 5579 5579 5579 5579 5579 5580 5581
5649 5647 5644 5641 5638 5635 5632 5629 5626 5623 5619 5616 5613 5609 5606 5602 5599 5595 5591 5587 5584 5580 5577 5575 5572 5570 5568 5567 5565 5564 5563 5562 5562 5562 5562 5562 5563 5564
5636 5634 5631 5628 5625 5622 5619 5616 5612 5609 5606 5602 5599 5595 5592 5588 5584 5580 5576 5572 5568 5565 5562 5559 5557 5555 5552 5551 5548 5547 5546 5545 5545 5544 5544 5544 5545 5545
5623 5620 5618 5615 5612 5608 5605 5602 5599 5595 5592 5588 5585 5581 5577 5573 5570 5565 5561 5558 5554 5551 5547 5544 5540 5538 5536 5534 5532 5531 5529 5528 5527 5527 5526 5526 5526 5527
5610 5607 5604 5601 5598 5595 5591 5588 5584 5581 5578 5574 5571 5567 5563 5559 5555 5551 5546 5542 5539 5534 5531 5529 5525 5522 5520 5517 5515 5513 5512 5510 5509 5508 5508 5507 5507 5508
5597 5594 5591 5588 5584 5581 5578 5574 5570 5567 5564 5560 5557 5552 5548 5544 5540 5536 5532 5528 5524 5519 5516 5514 5510 5507 5504 5500 5497 5495 5494 5492 5491 5489 5488 5488 5488 5488
5583 5581 5578 5575 5571 5568 5565 5561 5557 5553 5549 5546 5542 5538 5533 5529 5525 5521 5517 5513 5510 5505 5501 5498 5495 5491 5488 5484 5480 5477 5476 5474 5473 5471 5469 5469 5468 5468
5570 5567 5564 5561 5558 5554 5551 5547 5544 5540 5536 5532 5528 5524 5520 5515 5511 5507 5503 5498 5494 5491 5486 5483 5479 5475 5473 5469 5464 5461 5458 5456 5455 5453 5451 5450 5449 5448
5557 5554 5551 5548 5545 5541 5538 5534 5531 5527 5523 5519 5515 5510 5506 5502 5497 5493 5488 5484 5480 5476 5471 5468 5464 5459 5456 5454 5450 5445 5443 5440 5438 5436 5434 5432 5431 5429
5543 5540 5537 5534 5531 5528 5525 5521 5518 5514 5510 5506 5502 5498 5494 5489 5484 5480 5475 5470 5466 5461 5457 5453 5449 5445 5441 5438 5436 5432 5428 5425 5423 5421 5418 5416 5414 5412
5531 5528 5525 5522 5519 5515 5512 5509 5505 5501 5498 5494 5490 5485 5481 5476 5472 5467 5462 5457 5453 5448 5443 5439 5435 5431 5427 5424 5421 5418 5415 5412 5408 5405 5403 5400 5398 5397
5518 5515 5513 5510 5507 5503 5500 5497 5493 5490 5486 5482 5478 5473 5469 5464 5460 5455 5450 5445 5441 5436 5431 5426 5422 5418 5414 5410 5407 5404 5400 5397 5394 5391 5388 5386 5383 5381
5506 5504 5501 5498 5495 5492 5488 5485 5482 5478 5474 5470 5466 5462 5457 5453 5448 5443 5438 5433 5429 5424 5419 5415 5410 5406 5402 5398 5395 5391 5387 5384 5380 5377 5375 5372 5370 5367
5495 5493 5490 5487 5484 5481 5478 5474 5471 5467 5463 5459 5455 5451 5446 5441 5437 5432 5427 5422 5417 5413 5408 5404 5400 5396 5392 5387 5383 5379 5376 5372 5368 5364 5361 5359 5357 5355
5484 5482 5479 5476 5473 5470 5467 5464 5460 5456 5453 5448 5444 5440 5435 5430 5426 5421 5416 5411 5407 5402 5398 5394 5390 5386 5382 5378 5373 5368 5364 5361 5357 5353 5350 5347 5345 5343
5474 5471 5469 5466 5463 5460 5457 5453 5450 5446 5442 5438 5434 5429 5424 5420 5415 5410 5405 5401 5397 5392 5388 5384 5380 5375 5371 5368 5364 5359 5353 5350 5346 5343 5340 5337 5335 5333
5463 5461 5458 5455 5452 5449 5446 5443 5439 5436 5432 5427 5423 5419 5414 5410 5405 5400 5396 5392 5387 5383 5379 5375 5370 5366 5361 5357 5354 5350 5345 5340 5336 5332 5329 5327 5325 5323
5452 5450 5447 5444 5442 5439 5436 5432 5429 5425 5421 5417 5413 5409 5404 5400 5396 5391 5387 5383 5379 5375 5370 5366 5362 5357 5353 5348 5344 5340 5336 5331 5327 5323 5319 5316 5314 5313
5441 5439 5437 5434 5431 5428 5425 5422 5419 5415 5411 5407 5403 5399 5395 5391 5386 5382 5378 5374 5370 5366 5362 5358 5353 5349 5344 5340 5336 5331 5327 5323 5319 5316 5312 5309 5307 5305